Regional Weather Roundup
Issued by NWS

Home | Current Version | Previous Version | Graphics & Text | Print | Product List | Glossary On
Versions: 1 2 3 4 5 6 7 8 9 10 11 12 13 14 15 16 17 18 19 20 21 22 23 24 25 26 27 28 29 30 31 32 33 34 35 36 37 38 39 40 41 42 43 44 45 46 47 48 49 50
000
ASUS45 KBOU 221607
RWRCO

WEATHER ROUNDUP FOR COLORADO
NATIONAL WEATHER SERVICE DENVER/BOULDER CO
1000 AM MDT FRI JUL 22 2016

NOTE: "FAIR" INDICATES FEW OR NO CLOUDS BELOW 12000 FEET WITH NO
SIGNIFICANT WEATHER AND/OR OBSTRUCTIONS TO VISIBILITY.

COZ001>005-013-030-031-221700-
...NORTHWEST COLORADO...

CITY           SKY/WX    TMP DP  RH WIND       PRES   REMARKS
CRAIG          FAIR      76  50  40 NE7       30.38S
HAYDEN         FAIR      72  48  43 E7        30.40S
MEEKER         FAIR      72  52  49 CALM      30.39S
MOUNT WERNER   NOT AVBL
STEAMBOAT SPGS FAIR      67  51  55 CALM      30.42F
WALDEN         FAIR      66  50  55 SE6       30.51F
$$

COZ006>008-011-221700-
...WEST CENTRAL VALLEYS...

CITY           SKY/WX    TMP DP  RH WIND       PRES   REMARKS
GRAND JUNCTION FAIR      81  53  37 SE12      30.28S
MONTROSE       FAIR      76  54  46 NW3       30.37F
EAGLE          SUNNY     66  54  63 CALM      30.46F
RIFLE          FAIR      75  54  47 VRB5      30.35F
DELTA          FAIR      79  54  41 CALM      30.34S
NUCLA          FAIR      72  54  53 SE5       30.42S
$$

COZ017>023-064>068-221700-
...SOUTHWEST COLORADO...

CITY           SKY/WX    TMP DP  RH WIND       PRES   REMARKS
DURANGO        FAIR      74  50  42 NW3       30.43S
CORTEZ         FAIR      74  52  46 CALM      30.38S
PAGOSA SPRINGS FAIR      73  44  36 CALM      30.51S
TELLURIDE      PTSUNNY   67  46  46 W3        30.63R
WOLF CREEK PAS FAIR      55  43  62 SW7G17    30.85R
$$

COZ009-010-012-014-032>034-037-058>063-221700-
...CENTRAL COLORADO...

CITY           SKY/WX    TMP DP  RH WIND       PRES   REMARKS
ASPEN          FAIR      68  52  56 CALM      30.49F
BUENA VISTA    FAIR      69  48  46 E3        30.51S
COPPER MTN     FAIR      59  45  58 NW6       30.82S
BERTHOUD PASS  FAIR      50  36  57 N8G20     30.84S
COTTONWOOD PAS FAIR      66  48  52 E3        30.65S
GUNNISON       FAIR      64  50  59 CALM      30.55F
KREMMLING      CLOUDY    55  50  82 CALM      30.53S
LEADVILLE      FAIR      62  48  60 NW3       30.64S
MONARCH PASS   FAIR      54  43  66 NW9G18    30.92S
SALIDA         FAIR      70  52  53 W3        30.54F
SUNLIGHT       FAIR      63  50  63 CALM      30.75S
WILKERSON PASS FAIR      59  39  47 W5        30.78S
$$

COZ069>075-221700-
...SAN LUIS VALLEY/SANGRE DE CRISTO MOUNTAINS...

CITY           SKY/WX    TMP DP  RH WIND       PRES   REMARKS
ALAMOSA        FAIR      72  50  45 NE6       30.48S
LA VETA PASS   FAIR      64  43  45 S5        30.67S
SAGUACHE       FAIR      72  48  43 W3        30.51F
$$

COZ035-036-038>040-221700-
...NORTHERN COLORADO FRONT RANGE...

CITY           SKY/WX    TMP DP  RH WIND       PRES   REMARKS
DENVER INTL AP FAIR      84  46  26 NW5       30.25R
DMNS CITY PARK   N/A     86  46  25 E1        30.24F
AURORA         MOSUNNY   82  49  31 W6        30.27S
FRONT RANGE AP NOT AVBL
ERIE MUNI ARPT FAIR      86  42  21 E5        30.23S
BOULDER MUN AP FAIR      82  45  26 E3        30.24S
CENTENNIAL     FAIR      83  46  27 SW7       30.29R
BROOMFIELD     MOSUNNY   84  45  24 NE5       30.28R
LONGMONT       FAIR      86  49  28 SE3       30.24S
$$

COZ041-046-047-076>085-087-088-221700-
...PIKES PEAK/PALMER DIVIDE AND SOUTHERN FOOTHILLS...

CITY           SKY/WX    TMP DP  RH WIND       PRES   REMARKS
COLO. SPRINGS  PTSUNNY   81  50  33 SE6       30.33S
A. F. ACADEMY  PTSUNNY   80  45  28 VRB1      30.34S
SCHRIEVER AFB  NOT AVBL
ELLICOTT       LGT RAIN N/A N/A N/A SW8       30.31R
FALCON         FAIR      78  47  34 S3        30.39R
FORT CARSON    PTSUNNY   81  49  32 E6        30.29S
LIMON          FAIR      86  46  24 VRB6      30.26S
MONUMENT HILL  FAIR      73  52  46 W5        30.41R
TRINIDAD       NOT AVBL
$$

COZ042>045-048>051-090-091-221700-
...NORTHEAST COLORADO...

CITY           SKY/WX    TMP DP  RH WIND       PRES   REMARKS
GREELEY ARPT   FAIR      84  54  34 E7        30.20S
AKRON          FAIR      85  55  35 NW5       30.20S
BURLINGTON     FAIR      86  55  34 NW3       30.17R
WRAY           NOT AVBL
STERLING       FAIR      82  64  54 S5        30.14S
HOLYOKE        FAIR      86  68  54 W3        30.12S
FORT MORGAN    FAIR      84  51  32 SW3       30.20R
$$

COZ086-089-092>099-221700-
...SOUTHEAST COLORADO...

CITY           SKY/WX    TMP DP  RH WIND       PRES   REMARKS
PUEBLO         FAIR      92  49  22 W6        30.20F
LA JUNTA       FAIR      90  54  29 VRB5      30.16S
LAMAR          FAIR      84  57  39 W7        30.10S
SPRINGFIELD      N/A     95  50  21 CALM      30.14S
$$



USA.gov is the U.S. government's official web portal to all federal, state and local government web resources and services.